Year,Month,Day,Hour,Minute,Value (Times are PST for temperature in C)
2009,07,17,00,00,19.30
2009,07,17,00,01,19.30
2009,07,17,00,02,19.30
2009,07,17,00,03,19.30
2009,07,17,00,04,19.30
2009,07,17,00,05,19.20
2009,07,17,00,06,19.20
2009,07,17,00,07,19.20
2009,07,17,00,08,19.20
2009,07,17,00,09,19.20
2009,07,17,00,10,19.20
2009,07,17,00,11,19.20
2009,07,17,00,12,19.20
2009,07,17,00,13,19.20
2009,07,17,00,14,19.20
2009,07,17,00,15,19.20
2009,07,17,00,16,19.20
2009,07,17,00,17,19.20
2009,07,17,00,18,19.20
2009,07,17,00,19,19.10
2009,07,17,00,20,19.10
2009,07,17,00,21,19.10
2009,07,17,00,22,19.10
2009,07,17,00,23,19.10
2009,07,17,00,24,19.10
2009,07,17,00,25,19.10
2009,07,17,00,26,18.90
2009,07,17,00,27,18.90
2009,07,17,00,28,18.90
2009,07,17,00,29,18.90
2009,07,17,00,30,18.90
2009,07,17,00,31,18.90
2009,07,17,00,32,18.90
2009,07,17,00,33,18.90
2009,07,17,00,34,18.90
2009,07,17,00,35,18.90
2009,07,17,00,36,18.90
2009,07,17,00,37,18.90
2009,07,17,00,38,18.90
2009,07,17,00,39,18.90
2009,07,17,00,40,18.80
2009,07,17,00,41,18.80
2009,07,17,00,42,18.80
2009,07,17,00,43,18.80
2009,07,17,00,44,18.70
2009,07,17,00,45,18.70
2009,07,17,00,46,18.70
2009,07,17,00,47,18.60
2009,07,17,00,48,18.60
2009,07,17,00,49,18.50
2009,07,17,00,50,18.50
2009,07,17,00,51,18.50
2009,07,17,00,52,18.40
2009,07,17,00,53,18.40
2009,07,17,00,54,18.40
2009,07,17,00,55,18.40
2009,07,17,00,56,18.40
2009,07,17,00,57,18.30
2009,07,17,00,58,18.30
2009,07,17,00,59,18.30
2009,07,17,01,00,18.30
2009,07,17,01,01,18.30
2009,07,17,01,02,18.20
2009,07,17,01,03,18.20
2009,07,17,01,04,18.20
2009,07,17,01,05,18.20
2009,07,17,01,06,18.20
2009,07,17,01,07,18.20
2009,07,17,01,08,18.20
2009,07,17,01,09,18.10
2009,07,17,01,10,18.10
2009,07,17,01,11,18.10
2009,07,17,01,12,18.00
2009,07,17,01,13,17.90
2009,07,17,01,14,17.90
2009,07,17,01,15,17.90
2009,07,17,01,16,17.90
2009,07,17,01,17,17.90
2009,07,17,01,18,17.90
2009,07,17,01,19,17.90
2009,07,17,01,20,17.90
2009,07,17,01,21,17.90
2009,07,17,01,22,17.90
2009,07,17,01,23,17.90
2009,07,17,01,24,17.90
2009,07,17,01,25,17.90
2009,07,17,01,26,17.80
2009,07,17,01,27,17.80
2009,07,17,01,28,17.80
2009,07,17,01,29,17.80
2009,07,17,01,30,17.80
2009,07,17,01,31,17.80
2009,07,17,01,32,17.80
2009,07,17,01,33,17.80
2009,07,17,01,34,17.80
2009,07,17,01,35,17.80
2009,07,17,01,36,17.80
2009,07,17,01,37,17.80
2009,07,17,01,38,17.80
2009,07,17,01,39,17.80
2009,07,17,01,40,17.80
2009,07,17,01,41,17.80
2009,07,17,01,42,17.80
2009,07,17,01,43,17.80
2009,07,17,01,44,17.80
2009,07,17,01,45,17.80
2009,07,17,01,46,17.70
2009,07,17,01,47,17.70
2009,07,17,01,48,17.70
2009,07,17,01,49,17.70
2009,07,17,01,50,17.70
2009,07,17,01,51,17.70
2009,07,17,01,52,17.70
2009,07,17,01,53,17.60
2009,07,17,01,54,17.60
2009,07,17,01,55,17.60
2009,07,17,01,56,17.60
2009,07,17,01,57,17.60
2009,07,17,01,58,17.60
2009,07,17,01,59,17.60
2009,07,17,02,00,17.60
2009,07,17,02,01,17.60
2009,07,17,02,02,17.50
2009,07,17,02,03,17.50
2009,07,17,02,04,17.50
2009,07,17,02,05,17.50
2009,07,17,02,06,17.40
2009,07,17,02,07,17.40
2009,07,17,02,08,17.40
2009,07,17,02,09,17.40
2009,07,17,02,10,17.40
2009,07,17,02,11,17.30
2009,07,17,02,12,17.30
2009,07,17,02,13,17.30
2009,07,17,02,14,17.30
2009,07,17,02,15,17.30
2009,07,17,02,16,17.30
2009,07,17,02,17,17.30
2009,07,17,02,18,17.30
2009,07,17,02,19,17.30
2009,07,17,02,20,17.20
2009,07,17,02,21,17.20
2009,07,17,02,22,17.20
2009,07,17,02,23,17.20
2009,07,17,02,24,17.20
2009,07,17,02,25,17.20
2009,07,17,02,26,17.20
2009,07,17,02,27,17.20
2009,07,17,02,28,17.10
2009,07,17,02,29,17.10
2009,07,17,02,30,17.10
2009,07,17,02,31,17.00
2009,07,17,02,32,17.00
2009,07,17,02,33,16.90
2009,07,17,02,34,16.90
2009,07,17,02,35,16.90
2009,07,17,02,36,16.90
2009,07,17,02,37,16.80
2009,07,17,02,38,16.80
2009,07,17,02,39,16.80
2009,07,17,02,40,16.70
2009,07,17,02,41,16.70
2009,07,17,02,42,16.70
2009,07,17,02,43,16.70
2009,07,17,02,44,16.70
2009,07,17,02,45,16.70
2009,07,17,02,46,16.70
2009,07,17,02,47,16.70
2009,07,17,02,48,16.70
2009,07,17,02,49,16.70
2009,07,17,02,50,16.70
2009,07,17,02,51,16.70
2009,07,17,02,52,16.70
2009,07,17,02,53,16.70
2009,07,17,02,54,16.70
2009,07,17,02,55,16.70
2009,07,17,02,56,16.70
2009,07,17,02,57,16.60
2009,07,17,02,58,16.60
2009,07,17,02,59,16.60
2009,07,17,03,00,16.60
2009,07,17,03,01,16.60
2009,07,17,03,02,16.50
2009,07,17,03,03,16.40
2009,07,17,03,04,16.40
2009,07,17,03,05,16.40
2009,07,17,03,06,16.40
2009,07,17,03,07,16.40
2009,07,17,03,08,16.40
2009,07,17,03,09,16.30
2009,07,17,03,10,16.30
2009,07,17,03,11,16.30
2009,07,17,03,12,16.30
2009,07,17,03,13,16.30
2009,07,17,03,14,16.30
2009,07,17,03,15,16.30
2009,07,17,03,16,16.40
2009,07,17,03,17,16.40
2009,07,17,03,18,16.40
2009,07,17,03,19,16.40
2009,07,17,03,20,16.40
2009,07,17,03,21,16.40
2009,07,17,03,22,16.40
2009,07,17,03,23,16.40
2009,07,17,03,24,16.30
2009,07,17,03,25,16.30
2009,07,17,03,26,16.30
2009,07,17,03,27,16.30
2009,07,17,03,28,16.30
2009,07,17,03,29,16.30
2009,07,17,03,30,16.20
2009,07,17,03,31,16.20
2009,07,17,03,32,16.20
2009,07,17,03,33,16.10
2009,07,17,03,34,16.10
2009,07,17,03,35,16.10
2009,07,17,03,36,16.10
2009,07,17,03,37,16.10
2009,07,17,03,38,16.10
2009,07,17,03,39,16.10
2009,07,17,03,40,16.10
2009,07,17,03,41,16.10
2009,07,17,03,42,16.10
2009,07,17,03,43,16.10
2009,07,17,03,44,16.10
2009,07,17,03,45,16.10
2009,07,17,03,46,16.10
2009,07,17,03,47,16.10
2009,07,17,03,48,16.10
2009,07,17,03,49,16.10
2009,07,17,03,50,16.20
2009,07,17,03,51,16.20
2009,07,17,03,52,16.20
2009,07,17,03,53,16.20
2009,07,17,03,54,16.20
2009,07,17,03,55,16.20
2009,07,17,03,56,16.20
2009,07,17,03,57,16.10
2009,07,17,03,58,16.10
2009,07,17,03,59,16.10
2009,07,17,04,00,16.10
2009,07,17,04,01,16.10
2009,07,17,04,02,16.10
2009,07,17,04,03,16.10
2009,07,17,04,04,16.10
2009,07,17,04,05,16.10
2009,07,17,04,06,16.10
2009,07,17,04,07,16.10
2009,07,17,04,08,16.10
2009,07,17,04,09,16.10
2009,07,17,04,10,16.10
2009,07,17,04,11,16.20
2009,07,17,04,12,16.20
2009,07,17,04,13,16.20
2009,07,17,04,14,16.20
2009,07,17,04,15,16.30
2009,07,17,04,16,16.30
2009,07,17,04,17,16.30
2009,07,17,04,18,16.30
2009,07,17,04,19,16.30
2009,07,17,04,20,16.30
2009,07,17,04,21,16.30
2009,07,17,04,22,16.20
2009,07,17,04,23,16.20
2009,07,17,04,24,16.20
2009,07,17,04,25,16.20
2009,07,17,04,26,16.20
2009,07,17,04,27,16.20
2009,07,17,04,28,16.20
2009,07,17,04,29,16.20
2009,07,17,04,30,16.10
2009,07,17,04,31,16.10
2009,07,17,04,32,16.10
2009,07,17,04,33,16.10
2009,07,17,04,34,16.10
2009,07,17,04,35,16.10
2009,07,17,04,36,16.10
2009,07,17,04,37,16.00
2009,07,17,04,38,15.90
2009,07,17,04,39,15.90
2009,07,17,04,40,15.90
2009,07,17,04,41,15.90
2009,07,17,04,42,15.80
2009,07,17,04,43,15.80
2009,07,17,04,44,15.80
2009,07,17,04,45,15.80
2009,07,17,04,46,15.80
2009,07,17,04,47,15.80
2009,07,17,04,48,15.70
2009,07,17,04,49,15.70
2009,07,17,04,50,15.60
2009,07,17,04,51,15.60
2009,07,17,04,52,15.50
2009,07,17,04,53,15.50
2009,07,17,04,54,15.50
2009,07,17,04,55,15.40
2009,07,17,04,56,15.40
2009,07,17,04,57,15.40
2009,07,17,04,58,15.40
2009,07,17,04,59,15.40
2009,07,17,05,00,15.40
2009,07,17,05,01,15.30
2009,07,17,05,02,15.30
2009,07,17,05,03,15.30
2009,07,17,05,04,15.30
2009,07,17,05,05,15.20
2009,07,17,05,06,15.20
2009,07,17,05,07,15.10
2009,07,17,05,08,15.10
2009,07,17,05,09,15.00
2009,07,17,05,10,15.00
2009,07,17,05,11,14.90
2009,07,17,05,12,14.90
2009,07,17,05,13,14.80
2009,07,17,05,14,14.80
2009,07,17,05,15,14.70
2009,07,17,05,16,14.60
2009,07,17,05,17,14.50
2009,07,17,05,18,14.40
2009,07,17,05,19,14.40
2009,07,17,05,20,14.30
2009,07,17,05,21,14.20
2009,07,17,05,22,14.20
2009,07,17,05,23,14.20
2009,07,17,05,24,14.20
2009,07,17,05,25,14.10
2009,07,17,05,26,14.10
2009,07,17,05,27,14.10
2009,07,17,05,28,14.10
2009,07,17,05,29,14.00
2009,07,17,05,30,14.00
2009,07,17,05,31,14.00
2009,07,17,05,32,14.00
2009,07,17,05,33,13.90
2009,07,17,05,34,13.90
2009,07,17,05,35,13.80
2009,07,17,05,36,13.80
2009,07,17,05,37,13.80
2009,07,17,05,38,13.70
2009,07,17,05,39,13.70
2009,07,17,05,40,13.70
2009,07,17,05,41,13.70
2009,07,17,05,42,13.70
2009,07,17,05,43,13.70
2009,07,17,05,44,13.70
2009,07,17,05,45,13.60
2009,07,17,05,46,13.60
2009,07,17,05,47,13.60
2009,07,17,05,48,13.50
2009,07,17,05,49,13.50
2009,07,17,05,50,13.50
2009,07,17,05,51,13.50
2009,07,17,05,52,13.50
2009,07,17,05,53,13.40
2009,07,17,05,54,13.40
2009,07,17,05,55,13.40
2009,07,17,05,56,13.40
2009,07,17,05,57,13.40
2009,07,17,05,58,13.40
2009,07,17,05,59,13.30
2009,07,17,06,00,13.30
2009,07,17,06,01,13.30
2009,07,17,06,02,13.30
2009,07,17,06,03,13.30
2009,07,17,06,04,13.30
2009,07,17,06,05,13.30
2009,07,17,06,06,13.40
2009,07,17,06,07,13.40
2009,07,17,06,08,13.40
2009,07,17,06,09,13.40
2009,07,17,06,10,13.40
2009,07,17,06,11,13.40
2009,07,17,06,12,13.40
2009,07,17,06,13,13.40
2009,07,17,06,14,13.40
2009,07,17,06,15,13.40
2009,07,17,06,16,13.40
2009,07,17,06,17,13.40
2009,07,17,06,18,13.40
2009,07,17,06,19,13.50
2009,07,17,06,20,13.50
2009,07,17,06,21,13.50
2009,07,17,06,22,13.50
2009,07,17,06,23,13.50
2009,07,17,06,24,13.60
2009,07,17,06,25,13.60
2009,07,17,06,26,13.60
2009,07,17,06,27,13.60
2009,07,17,06,28,13.60
2009,07,17,06,29,13.60
2009,07,17,06,30,13.60
2009,07,17,06,31,13.70
2009,07,17,06,32,13.70
2009,07,17,06,33,13.70
2009,07,17,06,34,13.70
2009,07,17,06,35,13.70
2009,07,17,06,36,13.70
2009,07,17,06,37,13.80
2009,07,17,06,38,13.80
2009,07,17,06,39,13.90
2009,07,17,06,40,13.90
2009,07,17,06,41,14.00
2009,07,17,06,42,14.00
2009,07,17,06,43,14.10
2009,07,17,06,44,14.10
2009,07,17,06,45,14.20
2009,07,17,06,46,14.20
2009,07,17,06,47,14.20
2009,07,17,06,48,14.20
2009,07,17,06,49,14.30
2009,07,17,06,50,14.30
2009,07,17,06,51,14.40
2009,07,17,06,52,14.40
2009,07,17,06,53,14.50
2009,07,17,06,54,14.50
2009,07,17,06,55,14.60
2009,07,17,06,56,14.70
2009,07,17,06,57,14.80
2009,07,17,06,58,14.80
2009,07,17,06,59,14.90
2009,07,17,07,00,15.00
2009,07,17,07,01,15.10
2009,07,17,07,02,15.20
2009,07,17,07,03,15.20
2009,07,17,07,04,15.30
2009,07,17,07,05,15.30
2009,07,17,07,06,15.30
2009,07,17,07,07,15.30
2009,07,17,07,08,15.30
2009,07,17,07,09,15.30
2009,07,17,07,10,15.30
2009,07,17,07,11,15.30
2009,07,17,07,12,15.30
2009,07,17,07,13,15.30
2009,07,17,07,14,15.20
2009,07,17,07,15,15.20
2009,07,17,07,16,15.20
2009,07,17,07,17,15.20
2009,07,17,07,18,15.20
2009,07,17,07,19,15.10
2009,07,17,07,20,15.10
2009,07,17,07,21,15.10
2009,07,17,07,22,15.10
2009,07,17,07,23,15.10
2009,07,17,07,24,15.10
2009,07,17,07,25,15.10
2009,07,17,07,26,15.00
2009,07,17,07,27,15.00
2009,07,17,07,28,15.00
2009,07,17,07,29,15.00
2009,07,17,07,30,15.10
2009,07,17,07,31,15.10
2009,07,17,07,32,15.20
2009,07,17,07,33,15.30
2009,07,17,07,34,15.30
2009,07,17,07,35,15.30
2009,07,17,07,36,15.40
2009,07,17,07,37,15.40
2009,07,17,07,38,15.50
2009,07,17,07,39,15.50
2009,07,17,07,40,15.60
2009,07,17,07,41,15.60
2009,07,17,07,42,15.70
2009,07,17,07,43,15.80
2009,07,17,07,44,15.90
2009,07,17,07,45,15.90
2009,07,17,07,46,16.10
2009,07,17,07,47,16.10
2009,07,17,07,48,16.10
2009,07,17,07,49,16.20
2009,07,17,07,50,16.30
2009,07,17,07,51,16.40
2009,07,17,07,52,16.50
2009,07,17,07,53,16.60
2009,07,17,07,54,16.70
2009,07,17,07,55,16.80
2009,07,17,07,56,16.90
2009,07,17,07,57,17.00
2009,07,17,07,58,17.10
2009,07,17,07,59,17.20
2009,07,17,08,00,17.30
2009,07,17,08,01,17.30
2009,07,17,08,02,17.30
2009,07,17,08,03,17.40
2009,07,17,08,04,17.40
2009,07,17,08,05,17.40
2009,07,17,08,06,17.40
2009,07,17,08,07,17.40
2009,07,17,08,08,17.40
2009,07,17,08,09,17.40
2009,07,17,08,10,17.50
2009,07,17,08,11,17.50
2009,07,17,08,12,17.50
2009,07,17,08,13,17.50
2009,07,17,08,14,17.50
2009,07,17,08,15,17.60
2009,07,17,08,16,17.60
2009,07,17,08,17,17.70
2009,07,17,08,18,17.80
2009,07,17,08,19,17.90
2009,07,17,08,20,17.90
2009,07,17,08,21,17.90
2009,07,17,08,22,17.90
2009,07,17,08,23,18.00
2009,07,17,08,24,18.10
2009,07,17,08,25,18.20
2009,07,17,08,26,18.20
2009,07,17,08,27,18.30
2009,07,17,08,28,18.30
2009,07,17,08,29,18.40
2009,07,17,08,30,18.50
2009,07,17,08,31,18.50
2009,07,17,08,32,18.50
2009,07,17,08,33,18.40
2009,07,17,08,34,18.40
2009,07,17,08,35,18.30
2009,07,17,08,36,18.40
2009,07,17,08,37,18.40
2009,07,17,08,38,18.50
2009,07,17,08,39,18.60
2009,07,17,08,40,18.60
2009,07,17,08,41,18.80
2009,07,17,08,42,18.90
2009,07,17,08,43,19.10
2009,07,17,08,44,19.20
2009,07,17,08,45,19.20
2009,07,17,08,46,19.30
2009,07,17,08,47,19.40
2009,07,17,08,48,19.50
2009,07,17,08,49,19.60
2009,07,17,08,50,19.70
2009,07,17,08,51,19.90
2009,07,17,08,52,20.00
2009,07,17,08,53,20.10
2009,07,17,08,54,20.20
2009,07,17,08,55,20.20
2009,07,17,08,56,20.20
2009,07,17,08,57,20.20
2009,07,17,08,58,20.20
2009,07,17,08,59,20.30
2009,07,17,09,00,20.30
2009,07,17,09,01,20.40
2009,07,17,09,02,20.30
2009,07,17,09,03,20.20
2009,07,17,09,04,20.10
2009,07,17,09,05,20.00
2009,07,17,09,06,19.90
2009,07,17,09,07,19.90
2009,07,17,09,08,19.90
2009,07,17,09,09,19.90
2009,07,17,09,10,19.90
2009,07,17,09,11,20.10
2009,07,17,09,12,20.10
2009,07,17,09,13,20.20
2009,07,17,09,14,20.20
2009,07,17,09,15,20.20
2009,07,17,09,16,20.20
2009,07,17,09,17,20.20
2009,07,17,09,18,20.20
2009,07,17,09,19,20.20
2009,07,17,09,20,20.20
2009,07,17,09,21,20.20
2009,07,17,09,22,20.20
2009,07,17,09,23,20.20
2009,07,17,09,24,20.20
2009,07,17,09,25,20.20
2009,07,17,09,26,20.20
2009,07,17,09,27,20.20
2009,07,17,09,28,20.20
2009,07,17,09,29,20.20
2009,07,17,09,30,20.30
2009,07,17,09,31,20.30
2009,07,17,09,32,20.30
2009,07,17,09,33,20.30
2009,07,17,09,34,20.30
2009,07,17,09,35,20.30
2009,07,17,09,36,20.40
2009,07,17,09,37,20.40
2009,07,17,09,38,20.50
2009,07,17,09,39,20.60
2009,07,17,09,40,20.60
2009,07,17,09,41,20.60
2009,07,17,09,42,20.70
2009,07,17,09,43,20.80
2009,07,17,09,44,20.90
2009,07,17,09,45,21.00
2009,07,17,09,46,21.00
2009,07,17,09,47,21.10
2009,07,17,09,48,21.10
2009,07,17,09,49,21.10
2009,07,17,09,50,21.10
2009,07,17,09,51,21.10
2009,07,17,09,52,21.20
2009,07,17,09,53,21.00
2009,07,17,09,54,21.00
2009,07,17,09,55,21.00
2009,07,17,09,56,21.00
2009,07,17,09,57,21.00
2009,07,17,09,58,20.90
2009,07,17,09,59,20.80
2009,07,17,10,00,20.80
2009,07,17,10,01,20.80
2009,07,17,10,02,20.70
2009,07,17,10,03,20.70
2009,07,17,10,04,20.60
2009,07,17,10,05,20.60
2009,07,17,10,06,20.60
2009,07,17,10,07,20.60
2009,07,17,10,08,20.60
2009,07,17,10,09,20.60
2009,07,17,10,10,20.60
2009,07,17,10,11,20.60
2009,07,17,10,12,20.60
2009,07,17,10,13,20.60
2009,07,17,10,14,20.60
2009,07,17,10,15,20.70
2009,07,17,10,16,20.70
2009,07,17,10,17,20.70
2009,07,17,10,18,20.60
2009,07,17,10,19,20.50
2009,07,17,10,20,20.40
2009,07,17,10,21,20.40
2009,07,17,10,22,20.40
2009,07,17,10,23,20.50
2009,07,17,10,24,20.70
2009,07,17,10,25,20.80
2009,07,17,10,26,21.00
2009,07,17,10,27,21.10
2009,07,17,10,28,21.20
2009,07,17,10,29,21.30
2009,07,17,10,30,21.50
2009,07,17,10,31,21.60
2009,07,17,10,32,21.80
2009,07,17,10,33,21.90
2009,07,17,10,34,21.90
2009,07,17,10,35,21.90
2009,07,17,10,36,21.90
2009,07,17,10,37,21.90
2009,07,17,10,38,22.00
2009,07,17,10,39,22.20
2009,07,17,10,40,22.30
2009,07,17,10,41,22.40
2009,07,17,10,42,22.60
2009,07,17,10,43,22.70
2009,07,17,10,44,22.80
2009,07,17,10,45,22.90
2009,07,17,10,46,22.90
2009,07,17,10,47,23.00
2009,07,17,10,48,23.00
2009,07,17,10,49,23.00
2009,07,17,10,50,23.00
2009,07,17,10,51,22.90
2009,07,17,10,52,22.90
2009,07,17,10,53,22.90
2009,07,17,10,54,22.90
2009,07,17,10,55,23.00
2009,07,17,10,56,23.10
2009,07,17,10,57,23.20
2009,07,17,10,58,23.20
2009,07,17,10,59,23.20
2009,07,17,11,00,23.10
2009,07,17,11,01,23.20
2009,07,17,11,02,23.30
2009,07,17,11,03,23.30
2009,07,17,11,04,23.30
2009,07,17,11,05,23.30
2009,07,17,11,06,23.50
2009,07,17,11,07,23.60
2009,07,17,11,08,23.70
2009,07,17,11,09,23.90
2009,07,17,11,10,24.10
2009,07,17,11,11,24.20
2009,07,17,11,12,24.30
2009,07,17,11,13,24.30
2009,07,17,11,14,24.30
2009,07,17,11,15,24.30
2009,07,17,11,16,24.20
2009,07,17,11,17,24.30
2009,07,17,11,18,24.30
2009,07,17,11,19,24.40
2009,07,17,11,20,24.50
2009,07,17,11,21,24.50
2009,07,17,11,22,24.40
2009,07,17,11,23,24.20
2009,07,17,11,24,24.00
2009,07,17,11,25,23.70
2009,07,17,11,26,23.70
2009,07,17,11,27,23.50
2009,07,17,11,28,23.30
2009,07,17,11,29,23.30
2009,07,17,11,30,23.30
2009,07,17,11,31,23.30
2009,07,17,11,32,23.30
2009,07,17,11,33,23.10
2009,07,17,11,34,23.00
2009,07,17,11,35,22.80
2009,07,17,11,36,22.80
2009,07,17,11,37,22.70
2009,07,17,11,38,22.70
2009,07,17,11,39,22.70
2009,07,17,11,40,22.60
2009,07,17,11,41,22.70
2009,07,17,11,42,22.60
2009,07,17,11,43,22.60
2009,07,17,11,44,22.70
2009,07,17,11,45,22.70
2009,07,17,11,46,22.60
2009,07,17,11,47,22.60
2009,07,17,11,48,22.60
2009,07,17,11,49,22.50
2009,07,17,11,50,22.60
2009,07,17,11,51,22.60
2009,07,17,11,52,22.80
2009,07,17,11,53,22.90
2009,07,17,11,54,23.10
2009,07,17,11,55,23.30
2009,07,17,11,56,23.40
2009,07,17,11,57,23.60
2009,07,17,11,58,23.80
2009,07,17,11,59,23.90
2009,07,17,12,00,24.00
2009,07,17,12,01,24.10
2009,07,17,12,02,24.10
2009,07,17,12,03,24.10
2009,07,17,12,04,24.10
2009,07,17,12,05,24.20
2009,07,17,12,06,24.10
2009,07,17,12,07,24.10
2009,07,17,12,08,24.10
2009,07,17,12,09,24.20
2009,07,17,12,10,24.20
2009,07,17,12,11,24.10
2009,07,17,12,12,24.00
2009,07,17,12,13,23.90
2009,07,17,12,14,23.80
2009,07,17,12,15,23.70
2009,07,17,12,16,23.60
2009,07,17,12,17,23.50
2009,07,17,12,18,23.50
2009,07,17,12,19,23.40
2009,07,17,12,20,23.30
2009,07,17,12,21,23.20
2009,07,17,12,22,23.00
2009,07,17,12,23,22.90
2009,07,17,12,24,22.90
2009,07,17,12,25,22.90
2009,07,17,12,26,22.80
2009,07,17,12,27,22.70
2009,07,17,12,28,22.70
2009,07,17,12,29,22.80
2009,07,17,12,30,23.00
2009,07,17,12,31,23.10
2009,07,17,12,32,23.30
2009,07,17,12,33,23.30
2009,07,17,12,34,23.50
2009,07,17,12,35,23.60
2009,07,17,12,36,23.70
2009,07,17,12,37,23.80
2009,07,17,12,38,23.70
2009,07,17,12,39,23.60
2009,07,17,12,40,23.50
2009,07,17,12,41,23.40
2009,07,17,12,42,23.40
2009,07,17,12,43,23.50
2009,07,17,12,44,23.60
2009,07,17,12,45,23.70
2009,07,17,12,46,23.70
2009,07,17,12,47,23.70
2009,07,17,12,48,23.70
2009,07,17,12,49,23.80
2009,07,17,12,50,23.70
2009,07,17,12,51,23.80
2009,07,17,12,52,23.90
2009,07,17,12,53,24.00
2009,07,17,12,54,24.10
2009,07,17,12,55,24.10
2009,07,17,12,56,24.10
2009,07,17,12,57,24.10
2009,07,17,12,58,24.20
2009,07,17,12,59,24.10
2009,07,17,13,00,24.10
2009,07,17,13,01,24.10
2009,07,17,13,02,24.20
2009,07,17,13,03,24.10
2009,07,17,13,04,24.10
2009,07,17,13,05,24.10
2009,07,17,13,06,24.30
2009,07,17,13,07,24.50
2009,07,17,13,08,24.50
2009,07,17,13,09,24.60
2009,07,17,13,10,24.60
2009,07,17,13,11,24.60
2009,07,17,13,12,24.60
2009,07,17,13,13,24.50
2009,07,17,13,14,24.40
2009,07,17,13,15,24.40
2009,07,17,13,16,24.30
2009,07,17,13,17,24.00
2009,07,17,13,18,23.80
2009,07,17,13,19,23.70
2009,07,17,13,20,23.90
2009,07,17,13,21,23.90
2009,07,17,13,22,24.10
2009,07,17,13,23,24.30
2009,07,17,13,24,24.40
2009,07,17,13,25,24.50
2009,07,17,13,26,24.50
2009,07,17,13,27,24.50
2009,07,17,13,28,24.60
2009,07,17,13,29,24.80
2009,07,17,13,30,24.80
2009,07,17,13,31,24.90
2009,07,17,13,32,25.10
2009,07,17,13,33,25.20
2009,07,17,13,34,25.40
2009,07,17,13,35,25.50
2009,07,17,13,36,25.80
2009,07,17,13,37,25.90
2009,07,17,13,38,26.10
2009,07,17,13,39,26.20
2009,07,17,13,40,26.40
2009,07,17,13,41,26.70
2009,07,17,13,42,26.80
2009,07,17,13,43,26.80
2009,07,17,13,44,27.00
2009,07,17,13,45,27.20
2009,07,17,13,46,27.40
2009,07,17,13,47,27.60
2009,07,17,13,48,27.80
2009,07,17,13,49,27.90
2009,07,17,13,50,27.90
2009,07,17,13,51,28.00
2009,07,17,13,52,28.00
2009,07,17,13,53,27.90
2009,07,17,13,54,27.90
2009,07,17,13,55,28.00
2009,07,17,13,56,27.90
2009,07,17,13,57,27.90
2009,07,17,13,58,27.90
2009,07,17,13,59,27.90
2009,07,17,14,00,28.10
2009,07,17,14,01,28.30
2009,07,17,14,02,28.50
2009,07,17,14,03,28.60
2009,07,17,14,04,28.80
2009,07,17,14,05,28.80
2009,07,17,14,06,28.90
2009,07,17,14,07,28.90
2009,07,17,14,08,28.90
2009,07,17,14,09,29.00
2009,07,17,14,10,28.90
2009,07,17,14,11,28.90
2009,07,17,14,12,28.90
2009,07,17,14,13,28.90
2009,07,17,14,14,28.90
2009,07,17,14,15,28.90
2009,07,17,14,16,29.10
2009,07,17,14,17,29.10
2009,07,17,14,18,29.20
2009,07,17,14,19,29.30
2009,07,17,14,20,29.40
2009,07,17,14,21,29.40
2009,07,17,14,22,29.40
2009,07,17,14,23,29.30
2009,07,17,14,24,29.30
2009,07,17,14,25,29.10
2009,07,17,14,26,28.90
2009,07,17,14,27,29.00
2009,07,17,14,28,29.10
2009,07,17,14,29,29.10
2009,07,17,14,30,29.10
2009,07,17,14,31,29.20
2009,07,17,14,32,29.30
2009,07,17,14,33,29.30
2009,07,17,14,34,29.30
2009,07,17,14,35,29.20
2009,07,17,14,36,29.20
2009,07,17,14,37,29.10
2009,07,17,14,38,29.10
2009,07,17,14,39,29.30
2009,07,17,14,40,29.40
2009,07,17,14,41,29.50
2009,07,17,14,42,29.50
2009,07,17,14,43,29.50
2009,07,17,14,44,29.50
2009,07,17,14,45,29.50
2009,07,17,14,46,29.50
2009,07,17,14,47,29.50
2009,07,17,14,48,29.40
2009,07,17,14,49,29.30
2009,07,17,14,50,29.30
2009,07,17,14,51,29.30
2009,07,17,14,52,29.40
2009,07,17,14,53,29.30
2009,07,17,14,54,29.30
2009,07,17,14,55,29.20
2009,07,17,14,56,29.20
2009,07,17,14,57,29.30
2009,07,17,14,58,29.40
2009,07,17,14,59,29.50
2009,07,17,15,00,29.50
2009,07,17,15,01,29.50
2009,07,17,15,02,29.40
2009,07,17,15,03,29.40
2009,07,17,15,04,29.40
2009,07,17,15,05,29.40
2009,07,17,15,06,29.50
2009,07,17,15,07,29.50
2009,07,17,15,08,29.50
2009,07,17,15,09,29.50
2009,07,17,15,10,29.50
2009,07,17,15,11,29.50
2009,07,17,15,12,29.60
2009,07,17,15,13,29.70
2009,07,17,15,14,29.80
2009,07,17,15,15,29.80
2009,07,17,15,16,29.80
2009,07,17,15,17,29.90
2009,07,17,15,18,29.90
2009,07,17,15,19,29.90
2009,07,17,15,20,29.90
2009,07,17,15,21,30.00
2009,07,17,15,22,30.10
2009,07,17,15,23,30.20
2009,07,17,15,24,30.20
2009,07,17,15,25,30.20
2009,07,17,15,26,30.30
2009,07,17,15,27,30.20
2009,07,17,15,28,30.10
2009,07,17,15,29,29.90
2009,07,17,15,30,30.10
2009,07,17,15,31,30.10
2009,07,17,15,32,30.10
2009,07,17,15,33,30.00
2009,07,17,15,34,29.90
2009,07,17,15,35,29.90
2009,07,17,15,36,29.80
2009,07,17,15,37,29.80
2009,07,17,15,38,29.80
2009,07,17,15,39,29.80
2009,07,17,15,40,29.80
2009,07,17,15,41,29.80
2009,07,17,15,42,29.90
2009,07,17,15,43,29.90
2009,07,17,15,44,29.90
2009,07,17,15,45,29.90
2009,07,17,15,46,29.80
2009,07,17,15,47,29.70
2009,07,17,15,48,29.60
2009,07,17,15,49,29.50
2009,07,17,15,50,29.60
2009,07,17,15,51,29.60
2009,07,17,15,52,29.60
2009,07,17,15,53,29.50
2009,07,17,15,54,29.50
2009,07,17,15,55,29.40
2009,07,17,15,56,29.30
2009,07,17,15,57,29.30
2009,07,17,15,58,29.30
2009,07,17,15,59,29.40
2009,07,17,16,00,29.40
2009,07,17,16,01,29.40
2009,07,17,16,02,29.40
2009,07,17,16,03,29.40
2009,07,17,16,04,29.30
2009,07,17,16,05,29.30
2009,07,17,16,06,29.20
2009,07,17,16,07,29.10
2009,07,17,16,08,29.10
2009,07,17,16,09,29.10
2009,07,17,16,10,29.00
2009,07,17,16,11,28.90
2009,07,17,16,12,28.90
2009,07,17,16,13,28.90
2009,07,17,16,14,28.80
2009,07,17,16,15,28.80
2009,07,17,16,16,28.80
2009,07,17,16,17,28.80
2009,07,17,16,18,28.90
2009,07,17,16,19,28.90
2009,07,17,16,20,28.90
2009,07,17,16,21,28.90
2009,07,17,16,22,28.90
2009,07,17,16,23,29.00
2009,07,17,16,24,29.10
2009,07,17,16,25,29.10
2009,07,17,16,26,29.10
2009,07,17,16,27,29.00
2009,07,17,16,28,29.10
2009,07,17,16,29,29.20
2009,07,17,16,30,29.20
2009,07,17,16,31,29.20
2009,07,17,16,32,29.30
2009,07,17,16,33,29.20
2009,07,17,16,34,29.20
2009,07,17,16,35,29.10
2009,07,17,16,36,29.00
2009,07,17,16,37,28.90
2009,07,17,16,38,28.90
2009,07,17,16,39,28.90
2009,07,17,16,40,28.90
2009,07,17,16,41,28.90
2009,07,17,16,42,28.90
2009,07,17,16,43,29.00
2009,07,17,16,44,29.10
2009,07,17,16,45,29.00
2009,07,17,16,46,29.10
2009,07,17,16,47,29.00
2009,07,17,16,48,28.90
2009,07,17,16,49,28.90
2009,07,17,16,50,29.10
2009,07,17,16,51,29.10
2009,07,17,16,52,29.20
2009,07,17,16,53,29.30
2009,07,17,16,54,29.40
2009,07,17,16,55,29.40
2009,07,17,16,56,29.20
2009,07,17,16,57,29.10
2009,07,17,16,58,29.00
2009,07,17,16,59,28.90
2009,07,17,17,00,28.90
2009,07,17,17,01,28.90
2009,07,17,17,02,28.80
2009,07,17,17,03,28.80
2009,07,17,17,04,28.80
2009,07,17,17,05,28.80
2009,07,17,17,06,28.80
2009,07,17,17,07,28.80
2009,07,17,17,08,28.70
2009,07,17,17,09,28.60
2009,07,17,17,10,28.60
2009,07,17,17,11,28.60
2009,07,17,17,12,28.60
2009,07,17,17,13,28.60
2009,07,17,17,14,28.60
2009,07,17,17,15,28.40
2009,07,17,17,16,28.30
2009,07,17,17,17,28.10
2009,07,17,17,18,27.90
2009,07,17,17,19,27.80